Tracking 18917 objects as of 16-Jan-2018
HD Live streaming from Space Station
objects crossing your sky now

FENGYUN 1C DEB

Track FENGYUN 1C DEB now!
10-day predictions


NORAD ID: 29916
Int'l Code: 1999-025HN
Perigee: 859.0 km
Apogee: 1,270.2 km
Inclination: 99.3 °
Period: 106.3 minutes
Semi major axis: 7435 km
RCS: 0.0237 m2 (small)
Launch date: May 10, 1999
Source: People's Republic of China (PRC)
Launch site: Taiyaun Space Center, China (TSC)

Note: This is SATELLITE DEBRIS
aabbcc
Your satellite tracking list
Your tracking list is empty




NASA's NSSDC Master Catalog

Two Line Element Set (TLE):
1 29916U 99025HN  18015.90749751 +.00000267 +00000-0 +35467-3 0  9992
2 29916 099.2525 164.5684 0276492 035.9463 113.2828 13.54029500543416
Source of the keplerian elements: AFSPC